Weather History for ESUT - March, 2014

Change the Weather History Date:

Wednesday, March 26, 2014

  Actual Average (ENRA) Record (ENRA)
Temperature  
Mean Temperature 16 °F -  
Max Temperature 41 °F 34 °F 42 °F (2012)
Min Temperature -8 °F 24 °F 1 °F (2008)
Degree Days  
Heating Degree Days 48    
Moisture  
Dew Point 5 °F    
Average Humidity 69    
Maximum Humidity 92    
Minimum Humidity 17    
Precipitation  
Precipitation 0.00 in - - ()
Sea Level Pressure  
Sea Level Pressure 30.43 in    
Wind  
Wind Speed 1 mph ()    
Max Wind Speed 4 mph    
Max Gust Speed -    
Visibility 7.3 miles    
Events      
Averages and records for this station are not official NWS values.
T = Trace of Precipitation, MM = Missing Value Source: Averaged Metar Reports

Daily Weather History Graph

Daily Weather History Graph

Search for Another Location

Airport or City:

Trip Planner

Search our weather history database for the weather conditions in past years. The results will help you decide how hot, cold, wet, or windy it might be!

Date:

Astronomy

Mar. 26, 2014 Rise Set
Actual Time 5:37 AM CET 6:34 PM CET
Civil Twilight 4:46 AM CET 7:26 PM CET
Nautical Twilight 3:40 AM CET 8:33 PM CET
Astronomical Twilight 2:18 AM CET 9:57 PM CET
Moon 4:22 AM CET (3/26) 12:10 PM CET (3/26)
Length of Visible Light 14h 40m
Length of Day
12h 56m
Waning Crescent, 24% of the Moon is Illuminated
Mar 26
Waning Crescent
Mar 30
New
Apr 7
First Quarter
Apr 15
Full
Apr 22
Last Quarter

Hourly Weather History & Observations

Time (CET) Temp. Windchill Dew Point Humidity Pressure Visibility Wind Dir Wind Speed Gust Speed Precip Events Conditions
12:00 AM 4 °F - 1 °F 80% 30.54 in 19 mi Calm Calm - -  
12:20 AM 3.2 °F - -0.4 °F 85% 30.39 in 6.2 mi Calm Calm - N/A   Unknown
12:50 AM 1.4 °F - -2.2 °F 85% 30.39 in 6.2 mi Calm Calm - N/A   Unknown
1:00 AM 3 °F - 0 °F 83% 30.55 in 15 mi Calm Calm - -  
1:20 AM -0.4 °F - -2.2 °F 92% 30.42 in 6.2 mi SSE 2.3 mph - N/A   Unknown
1:50 AM -0.4 °F - -4.0 °F 85% 30.42 in 6.2 mi Calm Calm - N/A   Unknown
2:00 AM -0 °F - -3 °F 80% 30.56 in 22 mi Calm Calm - -  
2:20 AM -0.4 °F - -4.0 °F 85% 30.42 in 6.2 mi Calm Calm - N/A   Unknown
2:50 AM -0.4 °F - -4.0 °F 85% 30.42 in 6.2 mi Calm Calm - N/A   Unknown
3:00 AM -2 °F - -5 °F 81% 30.57 in 22 mi Calm Calm - -  
3:20 AM -0.4 °F - -4.0 °F 85% 30.42 in 6.2 mi Calm Calm - N/A   Unknown
3:50 AM -2.2 °F - -5.8 °F 85% 30.42 in 6.2 mi Calm Calm - N/A   Unknown
4:00 AM -3 °F - -6 °F 79% 30.58 in 28 mi Calm Calm - -  
4:20 AM -5.8 °F - -9.4 °F 84% 30.42 in 6.2 mi Calm Calm - N/A   Unknown
4:50 AM -4.0 °F - -7.6 °F 85% 30.45 in 6.2 mi West 1.2 mph - N/A   Unknown
5:00 AM -4 °F - -7 °F 80% 30.58 in 28 mi Calm Calm - -  
5:20 AM -2.2 °F - -5.8 °F 85% 30.42 in 6.2 mi SSE 2.3 mph - N/A   Unknown
5:50 AM -4.0 °F - -7.6 °F 85% 30.45 in 6.2 mi Calm Calm - N/A   Unknown
6:00 AM -4 °F - -8 °F 75% 30.59 in 15 mi Calm Calm - -  
6:20 AM -7.6 °F - -13.0 °F 77% 30.45 in 6.2 mi Calm Calm - N/A   Unknown
6:50 AM -4.0 °F - -7.6 °F 85% 30.45 in 6.2 mi Calm Calm - N/A   Unknown
7:00 AM -6 °F - -10 °F 75% 30.61 in 28 mi Calm Calm - -  
7:20 AM -2.2 °F - -5.8 °F 85% 30.45 in 6.2 mi Calm Calm - N/A   Unknown
7:50 AM -0.4 °F - -4.0 °F 85% 30.45 in 6.2 mi Variable 1.2 mph - N/A   Unknown
8:00 AM 1 °F - -2 °F 79% 30.60 in 17 mi Calm Calm - -  
8:20 AM 3.2 °F - 1.4 °F 92% 30.45 in 6.2 mi Variable 2.3 mph - N/A   Unknown
8:50 AM 6.8 °F - 3.2 °F 85% 30.45 in 6.2 mi WSW 1.2 mph - N/A   Unknown
9:00 AM 9 °F - 7 °F 88% 30.58 in 18 mi Calm Calm - -  
9:20 AM 10.4 °F - 8.6 °F 92% 30.45 in 6.2 mi Variable 1.2 mph - N/A   Unknown
9:50 AM 12.2 °F - 8.6 °F 85% 30.45 in 6.2 mi Variable 2.3 mph - N/A   Unknown
10:00 AM 13 °F - 10 °F 83% 30.57 in 22 mi Calm Calm - -  
10:20 AM 15.8 °F - 10.4 °F 79% 30.45 in 6.2 mi North 2.3 mph - N/A   Unknown
10:50 AM 23.0 °F - 14.0 °F 68% 30.45 in 6.2 mi Calm Calm - N/A   Unknown
11:00 AM 24 °F - 15 °F 56% 30.53 in 25 mi Calm Calm - -  
11:20 AM 23.0 °F - 12.2 °F 63% 30.42 in 6.2 mi Variable 2.3 mph - N/A   Unknown
11:50 AM 30.2 °F - 15.8 °F 55% 30.42 in 6.2 mi NNW 1.2 mph - N/A   Unknown
12:00 PM 28 °F - 14 °F 42% 30.52 in 14 mi Calm Calm - -  
12:20 PM 28.4 °F - 15.8 °F 59% 30.42 in 6.2 mi NNW 2.3 mph - N/A   Unknown
12:50 PM 32.0 °F - 15.8 °F 51% 30.42 in 6.2 mi SW 1.2 mph - N/A   Unknown
1:00 PM 33 °F - 15 °F 33% 30.49 in 28 mi Calm Calm - -  
1:20 PM 32.0 °F - 15.8 °F 51% 30.42 in 6.2 mi Variable 2.3 mph - N/A   Unknown
1:50 PM 33.8 °F 30.8 °F 15.8 °F 48% 30.39 in 6.2 mi WNW 3.5 mph - N/A   Unknown
2:00 PM 34 °F - 16 °F 34% 30.48 in 22 mi Calm Calm - -  
2:20 PM 37.4 °F - 15.8 °F 41% 30.39 in 6.2 mi Variable 2.3 mph - N/A   Unknown
2:50 PM 39.2 °F - 14.0 °F 36% 30.39 in 6.2 mi Calm Calm - N/A   Unknown
3:00 PM 41 °F - 12 °F 17% 30.43 in 25 mi Calm Calm - -  
3:20 PM 39.2 °F - 10.4 °F 31% 30.39 in 6.2 mi Variable 2.3 mph - N/A   Unknown
3:50 PM 37.4 °F - 12.2 °F 36% 30.36 in 6.2 mi Calm Calm - N/A   Unknown
4:00 PM 39 °F - 12 °F 20% 30.42 in 28 mi Calm Calm - -  
4:20 PM 37.4 °F 34.9 °F 12.2 °F 36% 30.36 in 6.2 mi Variable 3.5 mph - N/A   Unknown
4:50 PM 33.8 °F - 15.8 °F 48% 30.36 in 6.2 mi North 2.3 mph - N/A   Unknown
5:00 PM 34 °F - 15 °F 32% 30.43 in 25 mi Calm Calm - -  
5:20 PM 32.0 °F 28.7 °F 12.2 °F 44% 30.36 in 6.2 mi WNW 3.5 mph - N/A   Unknown
5:50 PM 28.4 °F - 12.2 °F 51% 30.33 in 6.2 mi Calm Calm - N/A   Unknown
6:00 PM 28 °F - 13 °F 41% 30.43 in 31 mi Calm Calm - -  
6:20 PM 23.0 °F - 14.0 °F 68% 30.33 in 6.2 mi Variable 1.2 mph - N/A   Unknown
6:50 PM 21.2 °F - 12.2 °F 68% 30.33 in 6.2 mi Calm Calm - N/A   Unknown
7:00 PM 15 °F - 6 °F 55% 30.46 in 31 mi Calm Calm - -  
7:20 PM 15.8 °F - 10.4 °F 79% 30.33 in 6.2 mi Calm Calm - N/A   Unknown
7:50 PM 14.0 °F - 8.6 °F 79% 30.33 in 6.2 mi Calm Calm - N/A   Unknown
8:00 PM 15 °F - 10 °F 70% 30.46 in 31 mi Calm Calm - -  
8:20 PM 14.0 °F - 10.4 °F 86% 30.33 in 6.2 mi Variable 2.3 mph - N/A   Unknown
8:50 PM 12.2 °F - 6.8 °F 79% 30.33 in 6.2 mi Variable 2.3 mph - N/A   Unknown
9:00 PM 12 °F - 9 °F 83% 30.46 in 31 mi Calm Calm - -  
9:20 PM 8.6 °F - 5.0 °F 85% 30.33 in 6.2 mi Calm Calm - N/A   Unknown
9:50 PM 8.6 °F - 5.0 °F 85% 30.33 in 6.2 mi Calm Calm - N/A   Unknown
10:00 PM 10 °F - 4 °F 69% 30.47 in 31 mi Calm Calm - -  
10:20 PM 12.2 °F - 8.6 °F 85% 30.33 in 6.2 mi Calm Calm - N/A   Unknown
10:50 PM 8.6 °F - 6.8 °F 92% 30.33 in 6.2 mi Calm Calm - N/A   Unknown
11:00 PM 9 °F - 6 °F 80% 30.46 in 31 mi Calm Calm - -  
11:20 PM 6.8 °F - 3.2 °F 85% 30.33 in 6.2 mi Calm Calm - N/A   Unknown
11:50 PM 10.4 °F - 6.8 °F 85% 30.33 in 6.2 mi Calm Calm - N/A   Partly Cloudy